Regional Weather Roundup
Issued by NWS

Home | Current Version | Previous Version | Graphics & Text | Print | Product List | Glossary On
Versions: 1 2 3 4 5 6 7 8 9 10 11 12 13 14 15 16 17 18 19 20 21 22 23 24 25 26 27 28 29 30 31 32 33 34 35 36 37 38 39 40 41 42 43 44 45 46 47 48 49 50
000
ASUS43 KTOP 201708
RWRKS

WEATHER ROUNDUP FOR KANSAS
NATIONAL WEATHER SERVICE GOODLAND KS
1200 PM CDT WED AUG 20 2014

NOTE:  "FAIR" INDICATES FEW OR NO CLOUDS BELOW 12,000 FEET WITH NO
SIGNIFICANT WEATHER AND/OR OBSTRUCTIONS TO VISIBILITY.

KSZ001>006-013>018-027>032-041>047-201800-
NORTHWEST KANSAS

CITY           SKY/WX    TMP DP  RH WIND       PRES   REMARKS
GOODLAND       SUNNY     90  56  31 VRB3      29.84R
HAYS           SUNNY     90  66  45 S16G23    29.81S
HILL CITY      SUNNY     90  66  45 S12       29.79S
RUSSELL        SUNNY     90  68  48 S16G24    29.81S
$$

KSZ061>065-074>080-084>089-201800-
SOUTHWEST KANSAS

CITY           SKY/WX    TMP DP  RH WIND       PRES   REMARKS
DODGE CITY     SUNNY     88  66  48 S18       29.85F
GARDEN CITY    SUNNY     87  65  47 S14       29.84S
GREAT BEND     SUNNY     90  66  45 S17G25    29.83S
LIBERAL        SUNNY     91  64  40 S22       29.87F
PRATT          SUNNY     88  63  42 S16G23    29.87S
$$

KSZ066>073-081>083-090>101-201800-
SOUTHEAST KANSAS

CITY           SKY/WX    TMP DP  RH WIND       PRES   REMARKS
CHANUTE        SUNNY     90  69  50 S16       29.92S
COFFEYVILLE    MOSUNNY   89  71  55 S20G26    29.93R HX  95
HUTCHINSON     SUNNY     90  66  45 S18       29.86S
MEDICINE LODGE   N/A     91  67  44 S13G23    29.84F
NEWTON         SUNNY     88  64  45 SW18      29.91S
PARSONS        SUNNY     89  71  55 S13       29.94S HX  95
WICHITA INTL   MOSUNNY   90  66  45 S22       29.87S
WICHITA JABRA  SUNNY     88  68  51 S15       29.88S
WICHITA MCCONL SUNNY     88  69  53 S17G24    29.88F
WINFIELD       SUNNY     89  70  53 S18G25    29.90F
$$

KSZ007>012-019>026-033>040-048>060-102>105-201800-
NORTHEAST KANSAS

CITY           SKY/WX    TMP DP  RH WIND       PRES   REMARKS
CONCORDIA      SUNNY     86  72  62 S16       29.81F
EMPORIA        SUNNY     89  67  47 S17G25    29.89S
LAWRENCE       SUNNY     90  71  53 S9        29.88S HX  96
MANHATTAN      SUNNY     91  69  48 S13G22    29.84S HX  96
MARYSVILLE     SUNNY     88  72  58 S8G18     29.84S
OLATHE IND     SUNNY     90  69  50 S17       29.91S
OLATHE EXE     SUNNY     88  70  55 SW10      29.91R
SALINA         SUNNY     90  70  51 S18       29.83S HX  95
TOPEKA BILLARD SUNNY     90  71  53 S9G17     29.87S HX  96
TOPEKA FORBES  SUNNY     91  68  46 S13       29.88S HX  95
$$


USA.gov is the U.S. government's official web portal to all federal, state and local government web resources and services.